Tracking 17782 objects as of 25-July-2016
HD Live streaming from Space Station
objects crossing your sky now

FENGYUN 2B AKM

Track FENGYUN 2B AKM now!


NORAD ID: 26460
Int'l Code: 2000-032C
Perigee: 35,780.0 km
Apogee: 35,960.2 km
Inclination: 12.0 °
Period: 1,440.0 minutes
Semi major axis: 42241 km
RCS: 7.9432 m2 (large)
Launch date: June 25, 2000
Source: People's Republic of China (PRC)
Launch site: Xichang Space Center, China (XSC)

Note: This is a ROCKET BODY
Your satellite tracking list
Your tracking list is empty





NASA's NSSDC Master Catalog

Two Line Element Set (TLE):
1 26460U 00032C   16206.65737883  .00000006  00000-0  00000+0 0  9990
2 26460  12.0404  36.4071 0021336 302.0032 265.7709  1.00129946 85952
Source of the keplerian elements: AFSPC

N2YO: 715